User: anonymous   Login
Location: Fauquembergues
(50.6005°N, 2.0987°E)
Time: 07:49:51
(UTC+00:00)
Language:

Meteor 1-20 Rocket - Orbit

View from above orbital plane
View from above orbital plane
View from above satellite
View from above satellite

Ground track
Ground track

The orbit data is extracted from the following two-line orbital elements,

1  7575U 74099B   20272.61317896 +.00000116 +00000-0 +56625-4 0  9993
2  7575 081.2462 224.3002 0051445 109.4386 251.2354 14.11075176355538
Epoch (UTC): 28 September 2020 14:42:58
Eccentricity: 0.0051445
inclination: 81.2462°
perigee height: 818 km
apogee height: 893 km
right ascension of ascending node: 224.3002°
argument of perigee: 109.4386°
revolutions per day: 14.11075176
mean anomaly at epoch: 251.2354°
orbit number at epoch: 35553

The dashed part of the orbit path shows where the satellite is in the earth's shadow,  

DLR